Location: Bessat
(45.8735°N, 1.9924°E)
Time: 08:26:12
(UTC+00:00)

Cosmos 1515 Rocket - Pass Details

Date: 11 May 2021
Orbit: 606 x 630 km, 82.5° (Epoch: 20 June)

Event Time Altitude Azimuth Distance (km) Brightness Sun altitude
Exits shadow 20:29:37 16° 145° (SE) 1,607 5.1 -11.8°
Maximum altitude 20:32:26 33° 91° (E) 1,057 4.4 -12.2°
Drops below altitude 10° 20:36:22 10° 27° (NNE) 1,991 6.4 -12.7°
Sets 20:38:45 0° 18° (NNE) 2,897 7.4 -13.0°
